Capitol Logistics 322


KABE
Lehigh Valley International Airport
Allentown, Pennsylvania, US
KRFD
Chicago/Rockford International Airport
Rockford, Illinois, US

Activity Log

Date Flight Route Aircraft Duration
04/03/2020 CPX322 PSB J60 JOT V171 RFD B763 1h 55m
02/25/2020 CPX322 PSB J60 JOT V171 RFD B763 2h 00m
01/16/2019 CPX410 ETX V30 PSB J60 JOT QUOTE RFD B752 2h 00m

Route Details

Aircraft Information
Primary: Boeing 767-300BDSF
Backup: Not Available
Route Data
Distance: 623nm
Sched. Duration: 1h 35m
Avg. Duration: 1h 85m (+50m)
Times Flown: 3
Recm'd Route: PSB J60 JOT V171 RFD
Planned Altitude: 34,000ft
Origin Wx: KABE 281251Z 06004KT 6SM -RA BR OVC004 09/09 A3003 RMK AO2 SLP171 P0003 T00940089
Dest. Wx: KRFD 281254Z 19004KT 10SM FEW250 M02/M06 A3007 RMK AO2 SLP193 T10221061
Notes:

Financial History
Total Freight: 266,186lbs
Average Load: 88,729lbs/flt
Fuel Used: 54,222lbs
Avg. Fuel Used: 18,074lbs/flt
Fuel Expense: $40,124
Avg. Fuel Expense: $13,375
Avg. Fuel Cost: $0.74/lbs
Total Gross Income: $361,209
Pilot Pay: $587
Total Expenses: $39,167
Total Revenue: $280,725
Average Revenue: $120,402.86